TimePST,TemperatureF,Dew PointF,Humidity,Sea Level PressureIn,VisibilityMPH,Wind Direction,Wind SpeedMPH,Gust SpeedMPH,PrecipitationIn,Events,Conditions,WindDirDegrees,DateUTC
12:12 AM,21.0,18.0,88,30.32,0.2,Calm,Calm,-,N/A,Fog,Light Freezing Fog,0,2014-01-18 08:12:00
12:53 AM,21.0,17.1,85,30.44,0.2,Calm,Calm,-,N/A,Fog,Light Freezing Fog,0,2014-01-18 08:53:00
1:34 AM,21.0,18.0,88,30.32,0.2,Calm,Calm,-,N/A,Fog,Light Freezing Fog,0,2014-01-18 09:34:00
1:53 AM,21.9,18.0,85,30.43,0.2,Calm,Calm,-,N/A,Fog,Light Freezing Fog,0,2014-01-18 09:53:00
2:50 AM,23.0,19.4,86,30.32,0.2,Calm,Calm,-,N/A,Fog,Light Freezing Fog,0,2014-01-18 10:50:00
2:53 AM,23.0,19.9,88,30.42,0.2,Calm,Calm,-,N/A,Fog,Light Freezing Fog,0,2014-01-18 10:53:00
3:26 AM,23.0,19.0,85,30.32,0.2,Calm,Calm,-,N/A,Fog,Light Freezing Fog,0,2014-01-18 11:26:00
3:53 AM,23.0,19.9,88,30.42,0.2,Calm,Calm,-,N/A,Fog,Light Freezing Fog,0,2014-01-18 11:53:00
4:21 AM,23.0,19.0,85,30.32,0.2,SSW,6.9,-,N/A,Fog,Light Freezing Fog,210,2014-01-18 12:21:00
4:53 AM,23.0,19.9,88,30.43,0.2,SSW,5.8,-,N/A,Fog,Light Freezing Fog,200,2014-01-18 12:53:00
5:26 AM,23.0,19.9,88,30.33,0.2,WSW,4.6,-,N/A,Fog,Light Freezing Fog,240,2014-01-18 13:26:00
5:53 AM,24.1,19.9,84,30.44,0.2,SW,3.5,-,N/A,Fog,Light Freezing Fog,230,2014-01-18 13:53:00
6:53 AM,23.0,19.0,85,30.45,0.5,Calm,Calm,-,N/A,Fog,Light Freezing Fog,0,2014-01-18 14:53:00
7:03 AM,23.0,19.9,88,30.33,0.2,NE,3.5,-,N/A,Fog,Light Freezing Fog,40,2014-01-18 15:03:00
7:37 AM,23.0,19.9,88,30.34,0.2,North,3.5,-,N/A,Fog,Light Freezing Fog,360,2014-01-18 15:37:00
7:53 AM,23.0,19.9,88,30.45,0.2,Calm,Calm,-,N/A,Fog,Light Freezing Fog,0,2014-01-18 15:53:00
8:00 AM,24.1,19.9,84,30.34,0.2,North,3.5,-,N/A,Fog,Light Freezing Fog,360,2014-01-18 16:00:00
8:53 AM,24.1,21.0,88,30.48,0.2,Calm,Calm,-,N/A,Fog,Light Freezing Fog,0,2014-01-18 16:53:00
9:03 AM,24.1,21.9,91,30.36,0.2,South,3.5,-,N/A,Fog,Light Freezing Fog,190,2014-01-18 17:03:00
9:53 AM,25.0,23.0,92,30.49,0.2,Calm,Calm,-,N/A,Fog,Light Freezing Fog,0,2014-01-18 17:53:00
10:53 AM,28.0,25.0,88,30.48,0.2,Calm,Calm,-,N/A,Fog,Light Freezing Fog,0,2014-01-18 18:53:00
11:53 AM,28.9,27.0,92,30.44,0.2,SW,3.5,-,N/A,Fog,Light Freezing Fog,220,2014-01-18 19:53:00
12:19 PM,30.9,28.0,89,30.31,0.5,SW,4.6,-,N/A,Fog,Light Freezing Fog,230,2014-01-18 20:19:00
12:36 PM,30.9,30.0,96,30.30,1.0,SSW,3.5,-,N/A,,Overcast,210,2014-01-18 20:36:00
12:48 PM,32.0,28.4,87,30.29,0.5,SW,5.8,-,N/A,Fog,Fog,220,2014-01-18 20:48:00
12:53 PM,32.0,30.0,92,30.39,0.8,WSW,4.6,-,N/A,,Overcast,240,2014-01-18 20:53:00
1:01 PM,32.0,30.0,92,30.28,1.0,SW,3.5,-,N/A,,Overcast,220,2014-01-18 21:01:00
1:31 PM,34.0,32.0,92,30.27,2.5,Calm,Calm,-,N/A,,Overcast,0,2014-01-18 21:31:00
1:38 PM,33.1,32.0,96,30.26,5.0,Calm,Calm,-,N/A,,Mostly Cloudy,0,2014-01-18 21:38:00
1:49 PM,35.6,33.8,93,30.26,7.0,WSW,3.5,-,N/A,,Scattered Clouds,240,2014-01-18 21:49:00
1:53 PM,36.0,33.1,89,30.35,8.0,Calm,Calm,-,N/A,,Partly Cloudy,0,2014-01-18 21:53:00
2:53 PM,42.1,30.9,65,30.31,10.0,SSW,3.5,-,N/A,,Clear,210,2014-01-18 22:53:00
3:53 PM,44.1,30.0,58,30.30,10.0,Calm,Calm,-,N/A,,Clear,0,2014-01-18 23:53:00
4:53 PM,42.1,28.9,60,30.30,10.0,Calm,Calm,-,N/A,,Clear,0,2014-01-19 00:53:00
5:53 PM,30.9,24.1,76,30.31,10.0,SSE,4.6,-,N/A,,Clear,150,2014-01-19 01:53:00
6:53 PM,28.9,24.1,82,30.32,10.0,Calm,Calm,-,N/A,,Clear,0,2014-01-19 02:53:00
7:53 PM,28.9,24.1,82,30.32,10.0,NNE,4.6,-,N/A,,Clear,20,2014-01-19 03:53:00
8:53 PM,27.0,21.9,81,30.32,10.0,Calm,Calm,-,N/A,,Clear,0,2014-01-19 04:53:00
9:53 PM,26.1,21.9,84,30.34,10.0,Calm,Calm,-,N/A,,Clear,0,2014-01-19 05:53:00
10:53 PM,21.0,18.0,88,30.34,8.0,Calm,Calm,-,N/A,,Clear,0,2014-01-19 06:53:00
11:53 PM,25.0,21.9,88,30.33,7.0,NNE,3.5,-,N/A,,Clear,20,2014-01-19 07:53:00